Flag for Monaco Weather past 2 weeks in Monaco, Monaco

Now
57 °F

Sunny.


Feels Like: 56 °F
Forecast: 54 / 70 °F
Wind: 7 mph from North

Location: Nice Airport

Current Time: Oct 23, 2014 at 10:06:52 AM

Latest Report: Oct 23, 2014 at 9:30 AM


Visibility: 10 mi

Pressure: 29.89 "Hg

Humidity: 31%

Dew point: 27 °F

Location of MonacoLocation

Historic Weather in Monaco — Graph

°F

Monaco temperature yesterday

Maximum temperature yesterday: 75 °F (at 1:00 AM)
Minimum temperature yesterday: 59 °F (at 9:30 PM)
Average temperature yesterday: 67 °F

Past Weeks' High & Low Weather Summary

 TemperatureHumidityPressure
High77 °F (Oct 9, 11:30 AM)94% (Oct 13, 5:00 PM)30.27 "Hg (Oct 13, 5:00 PM)
Low54 °F (Oct 23, 6:00 AM)14% (Oct 22, 11:30 AM)29.65 "Hg (Oct 22, 12:00 AM)
Average68 °F71%29.96 "Hg
* Reported Oct 8 9:00 AM — Oct 23 9:00 AM, Monaco, Weather by CustomWeather, © 2014

Note: Actual official high and low records may vary slightly from our data, if they occured in-between our weather recording intervals... More about our weather records

Advertising

Monaco weather history for previous 24 hours

 ConditionsComfort  
Time TempWeatherWind HumidityBarometerVisibility
9:00 AM
Oct 23
55 °FSunny.9 mph33%29.89 "Hg10 mi
8:30 AM55 °FClear.10 mph33%29.86 "Hg10 mi
8:00 AM55 °FClear.12 mph31%29.89 "Hg10 mi
7:30 AM54 °FClear.10 mph33%29.86 "Hg10 mi
7:00 AM54 °FPassing clouds.16 mph33%29.89 "HgN/A
6:30 AM54 °FClear.20 mph33%29.89 "Hg10 mi
6:00 AM54 °FClear.15 mph33%29.89 "Hg10 mi
5:30 AM55 °FClear.10 mph33%29.89 "Hg10 mi
5:00 AM55 °FClear.9 mph31%29.92 "Hg10 mi
4:30 AM55 °FClear.10 mph33%29.92 "Hg10 mi
4:00 AM55 °FClear.10 mph31%29.92 "Hg10 mi
3:30 AM55 °FClear.9 mph31%29.92 "Hg10 mi
3:00 AM55 °FClear.10 mph33%29.95 "Hg10 mi
2:30 AM57 °FClear.9 mph31%29.95 "Hg10 mi
2:00 AM57 °FPassing clouds.7 mph33%29.95 "HgN/A
1:00 AM57 °FPassing clouds.6 mph39%29.98 "HgN/A
12:30 AM59 °FPassing clouds.12 mph42%29.98 "HgN/A
12:00 AM59 °FPassing clouds.12 mph45%29.98 "HgN/A
11:30 PM
Oct 22
59 °FPassing clouds.12 mph51%29.98 "HgN/A
11:00 PM59 °FPassing clouds.9 mph55%29.98 "HgN/A
10:30 PM59 °FPassing clouds.12 mph55%29.98 "HgN/A
10:00 PM59 °FPassing clouds.9 mph59%29.95 "HgN/A
9:30 PM59 °FClear.9 mph59%29.95 "Hg10 mi
9:00 PM64 °FPassing clouds.6 mph46%29.95 "HgN/A
8:30 PM68 °FPassing clouds.10 mph43%29.92 "HgN/A
8:13 PM68 °FPassing clouds.13 mph49%29.92 "HgN/A
7:30 PM68 °FPassing clouds.14 mph43%29.92 "HgN/A
7:00 PM68 °FPassing clouds.10 mph40%29.89 "HgN/A
6:30 PM68 °FPassing clouds.14 mph43%29.89 "HgN/A
6:00 PM70 °FPassing clouds.16 mph43%29.86 "HgN/A
5:30 PM70 °FPassing clouds.13 mph40%29.86 "HgN/A
5:00 PM70 °FPassing clouds.16 mph38%29.86 "HgN/A
4:30 PM70 °FPassing clouds.15 mph40%29.83 "HgN/A
4:00 PM70 °FPassing clouds.17 mph40%29.83 "HgN/A
3:30 PM72 °FPassing clouds.13 mph38%29.83 "HgN/A
3:00 PM72 °FPassing clouds.14 mph38%29.83 "HgN/A
2:30 PM70 °FPassing clouds.13 mph38%29.83 "HgN/A
2:00 PM70 °FPassing clouds.13 mph38%29.83 "HgN/A
1:30 PM72 °FPassing clouds.12 mph38%29.86 "HgN/A
1:00 PM72 °FPassing clouds.12 mph36%29.86 "HgN/A
12:30 PM72 °FPassing clouds.12 mph33%29.86 "HgN/A
12:00 PM73 °FPassing clouds.3 mph27%29.86 "HgN/A
11:30 AM72 °FPassing clouds.No wind14%29.86 "HgN/A
11:00 AM70 °FPassing clouds.No wind20%29.83 "HgN/A
10:36 AM68 °FPassing clouds.3 mph24%29.83 "HgN/A
10:00 AM66 °FPassing clouds.6 mph26%29.83 "HgN/A
Weather by CustomWeather, © 2014

See weather overviewHow to use our weather pages